OpenBCM V1.08-5-g2f4a (Linux)

Packet Radio Mailbox

IZ3LSV

[San Dona' di P. JN]

 Login: GUEST





  
CX2SA  > KEP      15.02.20 01:16l 86 Lines 3615 Bytes #999 (0) @ ARL
BID : ARLK013
Read: GUEST
Subj: ARLK013 Keplerian data
Path: IZ3LSV<IQ2LB<IK1NHL<CX2SA
Sent: 200214/2257Z @:CX2SA.SAL.URY.SOAM #:24868 [Salto] FBB7.00e $:ARLK013
From: CX2SA@CX2SA.SAL.URY.SOAM
To  : KEP@ARL


ZCZC SK13
QST de W1AW
Keplerian Bulletin 13  ARLK013
From ARRL Headquarters
Newington, CT  February 14, 2020
To all radio amateurs

SB KEP ARL ARLK013
ARLK013 Keplerian data

Special thanks to AMSAT-NA (AMSAT.ORG) for the following Keplerian
data.

Decode 2-line elsets with the following key:
1 AAAAAU 00  0  0 BBBBB.BBBBBBBB  .CCCCCCCC  00000-0  00000-0 0  DDDZ
2 AAAAA EEE.EEEE FFF.FFFF GGGGGGG HHH.HHHH III.IIII JJ.JJJJJJJJKKKKKZ
KEY: A-CATALOGNUM B-EPOCHTIME C-DECAY D-ELSETNUM E-INCLINATION F-RAAN
G-ECCENTRICITY H-ARGPERIGEE I-MNANOM J-MNMOTION K-ORBITNUM Z-CHECKSUM

0 AO-07
1 7530U 74089B   20045.55876237 -.00000024 +00000-0 +13555-3 0  9996
2 7530 101.7833 016.0752 0011902 242.5216 230.5946 12.53642037070465
0 FO-29
1 24278U 96046B   20045.38564467 -.00000036 +00000-0 +10082-5 0  9998
2 24278 098.5670 171.5631 0349886 336.3635 022.1758 13.53095457160106
0 ISS
1 25544U 98067A   20045.69000171  .00000617  00000-0  19284-4 0  9997
2 25544  51.6440 239.5177 0004751 271.3152 134.0554 15.49162472212877
0 SO-50
1 27607U 02058C   20045.41388326 -.00000054  00000-0  13059-4 0  9995
2 27607  64.5555  33.6089 0063211 208.1096 151.6589 14.75609069922557
0 CO-55
1 27844U 03031E   20045.54280423 +.00000035 +00000-0 +35194-4 0  9995
2 27844 098.6843 055.1346 0010757 057.9024 302.3196 14.22220810862480
0 RS-22
1 27939U 03042A   20045.57776657  .00000130  00000-0  31851-4 0  9996
2 27939  98.0697 182.1941 0013617  30.3527 329.8458 14.66836837875859
0 RS-30
1 32953U 08025A   20045.45211057  .00000037  00000-0  19437-3 0  9990
2 32953  82.5070 355.0276 0019095 328.1775  31.8149 12.43094316532224
0 KKS-1
1 33499U 09002H   20045.55575021 +.00000034 +00000-0 +13009-4 0  9994
2 33499 098.3305 256.7132 0009617 152.8996 207.2716 14.75503465594314
0 AO-71
1 37854U 11061E   20045.55314544 +.00001069 +00000-0 +61518-4 0  9999
2 37854 101.7128 072.8632 0159243 070.2449 291.5859 15.06982481452810
0 AO-73
1 39444U 13066AE  20045.54304345 +.00000210 +00000-0 +32217-4 0  9991
2 39444 097.5585 052.6339 0056963 318.1662 041.5205 14.82062356335015
0 UKUBE 1
1 40074U 14037F   20045.45693859  .00000226  00000-0  34273-4 0  9993
2 40074  98.4516 226.4181 0004683 142.0560 218.0980 14.84191919303363
0 XW-2A
1 40903U 15049E   20045.42877612  .00001507  00000-0  36526-4 0  9992
2 40903  97.3061  94.1995 0013364   1.2373  56.8466 15.42625492247350
0 XW-2F
1 40910U 15049M   20045.50001645  .00000755  00000-0  40699-4 0  9994
2 40910  97.4668  50.7761 0016327  73.1928  77.7886 15.17702620243532
0 XW-2B
1 40911U 15049N   20045.48871501  .00000680  00000-0  38723-4 0  9990
2 40911  97.4744  49.0697 0015744  82.4691  68.5403 15.16070069243389
0 IO-86
1 40931U 15052B   20042.70762003  .00001147  00000-0  70670-4 0  9990
2 40931   5.9950 159.1845 0013734 283.7481  76.2445 14.76628155236498
0 CAS-4B
1 42759U 17034B   20045.31582000  .00000195  00000-0  25393-4 0  9993
2 42759  43.0203 349.0639 0012462 324.7877 170.4812 15.09741983147202
0 CAS-4A
1 42761U 17034D   20045.33315637  .00000066  00000-0  17492-4 0  9996
2 42761  43.0202 348.3494 0012790 325.8916 171.7234 15.09818947147202
0 AO-91
1 43017U 17073E   20045.30062291 +.00000383 +00000-0 +34722-4 0  9993
2 43017 097.7267 322.3089 0258878 094.7982 268.2840 14.78793602120818
0 AO-92
1 43137U 18004AC  20045.45492212 +.00000721 +00000-0 +32837-4 0  9998
2 43137 097.4600 117.3905 0010572 126.1664 234.0552 15.23878482116167

Keplerian bulletins are transmitted twice weekly from W1AW.  The
next scheduled transmission of these data will be Tuesday, February
18, 2020, at 2330z on Baudot and BPSK31.
NNNN


Read previous mail | Read next mail


 20.08.2025 02:19:12lGo back Go up